Location: Ash Swamp
(41.5170°N, 74.6157°W)
Time: 16:34:18
(UTC+00:00)

Cosmos 1802 Rocket - Pass Details

Date: 14 July 2020
Orbit: 954 x 1011 km, 82.9° (Epoch: 05 August)

Event Time Altitude Azimuth Distance (km) Brightness Sun altitude
Exits shadow 06:17:31 45° 156° (SSE) 1,348 4.4 -24.7°
Maximum altitude 06:19:28 66° 93° (E) 1,091 4.2 -24.5°
Drops below altitude 10° 06:25:50 10° 13° (NNE) 2,799 7.5 -24.1°
Sets 06:28:24 0° 11° (N) 3,755 8.4 -24.0°
